Back to catalog

FENGYUN 1C DEB

AlivePO
NORAD 32163·DEBRIS·🇨🇳 China

Launched May 10, 1999 from Taiyuan Satellite Launch Center

Loading…

Next Passes (next 24 hours)

TLE

AgingSource: Space-Track

Epoch: Sep 9, 2026, 08:20 UTC

1 32163U 99025CTH 26252.34784170  .00001310  00000-0  39006-3 0  9997
2 32163  99.5315 295.6681 0048587 324.7157  35.0818 14.44450018648810

Track FENGYUN 1C DEB in real time with AllMySat

Download on the App Store